Flag for U.S.A. Weather past 2 weeks in Cincinnati, Ohio, U.S.A.

Now
38 °F

Clear.


Feels Like: 38 °F
Forecast: 45 / 66 °F
Wind: No wind

Location: Cincinnati Municipal Airport Lunken Field

Current Time: Mar 31, 2015 at 4:46:05 AM

Latest Report: Mar 31, 2015 at 3:53 AM


Visibility: 10 mi

Pressure: 29.93 "Hg

Humidity: 86%

Dew point: 34 °F

Location of CincinnatiLocation

Historic Weather in Cincinnati — Graph

°F

Cincinnati temperature yesterday

Maximum temperature yesterday: 60 °F (at 4:53 PM)
Minimum temperature yesterday: 34 °F (at 7:53 AM)
Average temperature yesterday: 50 °F

Past Weeks' High & Low Weather Summary

 TemperatureHumidityPressure
High75 °F (Mar 16, 3:53 PM)100% (Mar 24, 9:53 PM)30.41 "Hg (Mar 24, 9:53 PM)
Low19 °F (Mar 29, 7:53 AM)23% (Mar 29, 6:53 PM)29.84 "Hg (Mar 17, 4:53 AM)
Average44 °F62%30.13 "Hg
* Reported Mar 16 3:53 AM — Mar 31 3:53 AM, Cincinnati, Weather by CustomWeather, © 2015

Note: Actual official high and low records may vary slightly from our data, if they occured in-between our weather recording intervals... More about our weather records

Advertising

Cincinnati weather history for previous 24 hours

 ConditionsComfort  
Time TempWeatherWind HumidityBarometerVisibility
3:53 AM
Tue, Mar 31
38 °FClear.No wind86%29.93 "Hg10 mi
2:53 AM38 °FClear.No wind90%29.98 "Hg10 mi
1:53 AM43 °FClear.No wind71%30.00 "Hg10 mi
12:53 AM45 °FClear.No wind68%30.03 "Hg10 mi
11:53 PM
Mon, Mar 30
48 °FOvercast.No wind61%30.05 "Hg10 mi
10:53 PM47 °FPassing clouds.No wind66%30.06 "Hg10 mi
9:53 PM47 °FPassing clouds.No wind59%30.06 "Hg10 mi
8:53 PM51 °FSunny.No wind46%30.05 "Hg10 mi
7:53 PM57 °FSunny.7 mph33%30.06 "Hg10 mi
6:53 PM57 °FPassing clouds.12 mph34%30.05 "Hg10 mi
5:53 PM59 °FScattered clouds.13 mph31%30.06 "Hg10 mi
4:53 PM60 °FPassing clouds.16 mph31%30.06 "Hg10 mi
3:53 PM57 °FPassing clouds.9 mph32%30.07 "Hg10 mi
2:53 PM58 °FPassing clouds.13 mph35%30.09 "Hg10 mi
1:53 PM57 °FPassing clouds.9 mph36%30.12 "Hg10 mi
12:53 PM55 °FPassing clouds.16 mph40%30.13 "Hg10 mi
11:53 AM53 °FScattered clouds.12 mph51%30.13 "Hg10 mi
10:53 AM51 °FSunny.5 mph59%30.12 "Hg10 mi
9:53 AM48 °FSunny.9 mph66%30.11 "Hg10 mi
8:53 AM44 °FSunny.3 mph76%30.09 "Hg10 mi
7:53 AM34 °FClear.5 mph92%30.08 "Hg10 mi
6:53 AM40 °FPassing clouds.6 mph77%30.04 "Hg10 mi
5:53 AM43 °FClear.5 mph68%30.01 "Hg10 mi
4:53 AM45 °FClear.8 mph68%30.00 "Hg10 mi
Weather by CustomWeather, © 2015

See weather overviewHow to use our weather pages